Regional Weather Roundup
Issued by NWS State College, PA

Home | Current Version | Previous Version | Text Only | Print | Product List | Glossary Off
Versions: 1 2 3 4 5 6 7 8 9 10 11 12 13 14 15 16 17 18 19 20 21 22 23 24 25 26 27 28 29 30 31 32 33 34 35 36 37 38 39 40 41 42 43 44 45 46 47 48 49 50

000
ASUS41 KCTP 210803
RWRCTP

REGIONAL WEATHER ROUNDUP
NATIONAL WEATHER SERVICE STATE COLLEGE PA
300 AM EST TUE NOV 21 2017

Note: "fair" indicates few or no clouds below 12,000 feet with no
significant weather and/or obstructions to visibility.

* = STATION THAT DOES NOT REPORT PRECIPITATION /E.G. RAIN...SNOW...ETC/
    THUNDER OR FOG.

PAZ002>004-007>009-013>016-020>023-029>032-210900-
WESTERN PENNSYLVANIA

CITY           SKY/WX    TMP DP  RH WIND       PRES   REMARKS
ERIE           CLEAR     42  20  41 S17G28    29.87S
MEADVILLE      CLEAR     34  22  61 S10G17    29.91F
FRANKLIN*      CLEAR     32  21  64 S8        29.94S
NEW CASTLE     FAIR      35  23  61 S6        29.96S
BEAVER COUNTY  NOT AVBL
BUTLER*        CLEAR     35  21  56 S6        29.97F
PITTSBURGH INT PTCLDY    34  22  61 SE5       29.97F
PITTSBURGH     CLEAR     37  19  48 S9        29.97F
INDIANA*       CLEAR     30  23  74 CALM      30.03F
LATROBE        CLEAR     32  21  64 CALM      30.01S
WASHINGTON CO* CLEAR     37  21  52 S8        30.01F
$$

PAZ004>006-010>012-017>019-024>028-033>037-041-042-045-046-049>053-210900-
CENTRAL PENNSYLVANIA

CITY           SKY/WX    TMP DP  RH WIND       PRES   REMARKS
BRADFORD       CLEAR     34  20  56 S6        29.94S
DUBOIS         CLOUDY    38  18  44 SW12      29.96F
CLEARFIELD     CLOUDY    26  23  88 N5        30.00F
JOHNSTOWN      CLOUDY    37  15  40 SW7       29.99S
ALTOONA        CLOUDY    33  22  63 NW5       30.03S
STATE COLLEGE  CLOUDY    33  22  63 W6        30.03S
WILLIAMSPORT   CLOUDY    28  24  85 CALM      30.06F
SELINSGROVE    CLOUDY    27  25  92 CALM      30.08F
FT INDIANTOWN  CLOUDY    26  26  97 CALM      30.10F
CAPITAL CITY   PTCLDY    32  24  72 CALM      30.10S
HARRISBURG     MOCLDY    37  24  59 CALM      30.09F
YORK           CLOUDY    41  24  51 S9        30.09F
$$

PAZ038>040-043-044-047-048-054-055-060>062-067>071-210900-
EASTERN PENNSYLVANIA

CITY           SKY/WX    TMP DP  RH WIND       PRES   REMARKS
SCRANTON       PTCLDY    35  23  61 CALM      30.05S
MOUNT POCONO   CLOUDY    35  21  56 W8        30.04S
ALLENTOWN      CLOUDY    28  22  78 CALM      30.12S
QUAKERTOWN*    CLOUDY    32  23  69 SW3       30.12F
READING        CLOUDY    30  28  92 N3        30.11F
LANCASTER      CLOUDY    33  25  72 E3        30.11F
COATESVILLE    CLOUDY    41  27  56 VRB5      30.13F
POTTSTOWN      PTCLDY    38  23  55 SE3       30.14F
BLUE BELL      CLOUDY    37  30  75 CALM      30.15S
DOYLESTOWN     CLOUDY    38  26  62 S5        30.12F
WILLOW GROVE   NOT AVBL
NORTH PHILA    CLOUDY    41  30  65 SW5       30.16F
PHILADELPHIA   CLOUDY    41  30  65 S5        30.16F
$$




USA.gov is the U.S. government's official web portal to all federal, state and local government web resources and services.